This is the latest recevied weather packets stored in our database for station/object W5ALL-WX. If no packets are shown the sender has not sent any weather packets the latest 10 day(s).
| Time | Temp. | Humidity | Pressure | Rain* | Wind** | Luminosity | Snow |
|---|---|---|---|---|---|---|---|
| 1777763116 | 18.89° C | 44% | 1019.5 hPa | 0 mm | - | - | - |
| 1777762816 | 18.89° C | 43% | 1019.6 hPa | 0 mm | - | - | - |
| 1777762516 | 19.44° C | 43% | 1019.6 hPa | 0 mm | - | - | - |
| 1777762216 | 19.44° C | 43% | 1019.6 hPa | 0 mm | - | - | - |
| 1777761916 | 19.44° C | 44% | 1019.6 hPa | 0 mm | - | - | - |
| 1777761616 | 18.89° C | 43% | 1019.6 hPa | 0 mm | - | - | - |
| 1777761316 | 19.44° C | 44% | 1019.6 hPa | 0 mm | - | - | - |
| 1777761016 | 18.89° C | 45% | 1019.5 hPa | 0 mm | - | - | - |
| 1777760716 | 18.89° C | 43% | 1019.6 hPa | 0 mm | - | - | - |
| 1777760416 | 19.44° C | 44% | 1019.6 hPa | 0 mm | - | - | - |
| 1777760116 | 18.89° C | 45% | 1019.6 hPa | 0 mm | - | - | - |
| 1777759816 | 18.89° C | 46% | 1019.7 hPa | 0 mm | - | - | - |
| 1777759516 | 18.33° C | 47% | 1019.8 hPa | 0 mm | - | - | - |
| 1777759216 | 17.78° C | 48% | 1019.8 hPa | 0 mm | - | - | - |
| 1777758916 | 17.78° C | 48% | 1019.9 hPa | 0 mm | - | - | - |
| 1777758616 | 17.78° C | 48% | 1020.1 hPa | 0 mm | - | - | - |
| 1777758316 | 17.78° C | 48% | 1020.2 hPa | 0 mm | - | - | - |
| 1777758016 | 17.78° C | 48% | 1020.4 hPa | 0 mm | - | - | - |
| 1777757716 | 18.33° C | 47% | 1020.4 hPa | 0 mm | - | - | - |
| 1777757427 | 18.33° C | 46% | 1020.4 hPa | 0 mm | - | - | - |
| 1777757116 | 18.33° C | 46% | 1020.6 hPa | 0 mm | - | - | - |
| 1777756816 | 18.89° C | 43% | 1020.8 hPa | 0 mm | - | - | - |
| 1777756516 | 18.89° C | 45% | 1020.9 hPa | 0 mm | - | - | - |
| 1777756216 | 18.89° C | 45% | 1020.9 hPa | 0 mm | - | - | - |
| 1777755916 | 18.33° C | 46% | 1021 hPa | 0 mm | - | - | - |
* Rain latest hour (hover to see other rain measurements)
** Current wind speed in m/s (hover to see current wind gust speed)